Theta_e
302 302 302 303 303 304 305 306 309 310 311 312 314 316 314 314 310 309 310 313 313 314 318 317 318 321 323 323 324 324 324 322 322 324 323 323 323 317 313 311 311 311 309 309 309 311 312 314 313 315 317 318 318 316 315 314 312 312 311 309 311 309 309 310 310 313 314 313 311 309 306 302 301 300
301 303 302 301 301 302 303 304 305 306 307 308 310 312 314 316 312 312 309 311 317 316 314 317 318 319 321 322 321 321 321 318 322 323 322 322 322 316 312 311 311 311 310 309 310 311 311 312 313 315 317 317 316 314 313 312 311 312 312 309 310 310 311 311 310 313 313 313 309 306 304 302 300 301
302 301 300 300 301 301 302 302 303 304 305 306 307 309 311 311 312 312 312 309 316 319 316 315 318 319 320 322 321 320 320 319 318 319 320 321 317 316 314 311 310 311 310 310 310 312 312 310 311 313 315 316 315 313 313 314 312 311 311 308 309 311 312 311 310 312 313 310 307 305 303 302 301 301
301 300 299 299 300 300 301 300 301 302 303 305 306 307 307 309 310 312 311 310 310 318 318 319 319 320 319 321 320 321 321 321 316 317 318 319 316 317 318 311 309 309 309 309 309 310 310 310 310 310 312 314 313 312 312 312 311 311 310 308 309 311 311 312 310 312 311 309 307 304 303 302 301 301
299 299 299 299 300 300 299 300 301 302 302 302 304 305 306 307 309 311 310 308 309 313 318 318 318 320 319 319 319 320 320 319 317 315 315 315 316 316 317 317 309 308 308 307 307 308 309 311 310 308 309 312 311 310 310 310 309 309 309 306 306 307 311 311 310 310 309 308 306 304 302 301 300 300
300 298 298 299 299 299 299 299 301 301 301 300 300 301 303 303 306 310 310 309 308 307 312 314 317 318 318 319 318 319 319 318 316 316 317 315 315 315 315 315 315 307 308 307 306 307 308 309 308 308 307 309 309 309 308 309 307 307 306 304 304 306 308 308 307 307 308 307 305 304 302 301 300 300
298 298 299 298 299 301 299 299 299 300 300 300 299 300 302 303 304 307 310 310 308 309 309 313 314 315 317 318 320 321 320 320 318 317 317 317 315 314 314 314 315 308 306 306 306 306 307 308 308 308 308 307 307 307 307 307 306 304 303 303 303 303 303 303 303 304 305 306 304 304 302 300 300 300
298 299 298 298 299 299 299 298 299 299 300 300 300 300 301 302 302 304 307 309 306 305 304 307 310 313 315 317 319 320 319 318 316 315 315 312 314 314 313 313 313 310 306 305 306 306 307 308 308 307 308 308 307 307 307 306 305 303 302 301 301 301 300 300 300 301 304 306 305 304 302 300 300 300
300 300 300 300 299 298 298 298 298 299 300 301 301 300 301 300 301 302 303 303 303 303 302 303 307 310 311 314 316 318 318 317 312 309 312 313 313 312 312 312 314 309 306 306 306 306 306 307 307 307 307 307 306 306 306 305 304 303 302 301 300 300 299 299 299 299 301 302 302 303 302 300 300 300
299 299 299 299 300 300 300 300 300 300 300 301 300 300 300 300 300 299 298 299 300 301 301 302 302 305 306 308 311 315 316 316 314 311 309 307 307 309 309 310 310 310 310 308 308 306 306 306 306 307 307 307 306 306 305 305 304 302 302 301 300 299 299 298 298 298 299 299 299 300 302 300 300 300
298 299 299 300 300 301 301 301 301 301 301 301 301 301 301 302 301 300 299 299 298 298 298 299 300 301 304 307 306 311 315 316 316 314 311 309 309 306 308 309 306 304 307 307 306 308 308 309 309 307 307 307 306 306 304 304 303 302 301 300 299 299 298 298 298 298 298 297 297 297 297 300 300 299
297 297 298 298 298 299 300 301 301 302 301 301 301 301 301 300 299 298 299 299 298 297 297 297 297 299 300 302 306 309 311 312 311 312 312 312 312 309 308 308 306 302 304 305 308 307 308 307 307 306 305 305 305 304 304 304 304 302 300 299 298 298 298 298 298 297 297 297 296 295 295 295 296 297
295 296 296 296 297 300 302 300 300 300 300 300 299 299 298 298 297 297 297 298 297 297 297 297 298 298 298 299 301 302 304 307 309 313 310 310 311 309 306 307 306 306 305 306 308 309 310 310 310 310 310 310 306 306 305 305 304 302 299 298 297 298 297 298 297 297 297 296 295 294 293 293 293 293
294 295 295 297 300 300 300 299 297 296 296 298 298 298 298 297 296 296 295 295 295 296 295 295 296 296 296 297 299 300 302 306 308 308 308 308 309 304 303 303 303 303 306 306 306 308 309 310 310 309 310 310 307 308 306 306 304 302 299 298 297 297 297 297 297 297 296 295 294 294 293 293 293 292
293 293 294 294 297 298 298 298 296 295 294 294 294 295 296 297 297 295 295 295 295 294 294 294 294 295 295 297 299 300 302 304 305 305 306 307 305 303 302 304 303 304 306 306 306 307 307 308 308 308 309 310 307 307 306 303 301 300 298 297 297 297 297 297 296 296 296 295 295 294 294 293 293 293
292 292 293 293 295 295 295 296 295 296 295 294 294 294 293 293 293 294 296 295 295 294 294 293 294 294 294 295 298 299 300 302 303 305 306 306 305 304 303 305 307 303 305 305 305 306 305 306 307 307 307 308 306 306 304 300 299 299 298 297 297 297 297 296 296 295 294 294 293 293 293 293 293 293
291 292 292 293 293 294 297 298 295 295 295 295 294 294 294 294 294 292 292 293 296 297 295 294 294 294 294 294 295 299 300 302 301 303 304 305 304 305 305 306 309 299 303 304 303 304 302 303 303 306 307 306 304 303 300 299 299 298 298 297 297 296 296 295 295 294 293 293 293 293 293 293 293 293
291 291 291 291 292 292 293 294 293 293 293 293 293 293 294 294 295 294 293 292 292 294 296 296 294 295 296 295 296 300 303 303 302 302 303 305 305 304 305 306 298 297 304 304 303 301 299 300 302 302 305 303 302 302 300 298 298 297 297 297 296 296 295 295 294 293 293 293 293 293 293 293 292 292
291 291 291 291 291 291 291 292 293 292 292 292 292 292 292 292 293 294 294 295 296 296 296 296 296 297 297 297 298 300 302 303 305 306 304 305 306 306 299 294 295 297 302 304 304 302 300 298 300 301 303 299 300 300 298 297 297 297 296 296 295 295 295 294 293 293 293 293 293 292 292 292 292 292
290 290 290 290 290 290 290 292 292 292 293 291 291 290 290 291 291 292 295 295 295 296 297 297 297 298 298 297 299 300 300 298 298 298 299 300 301 302 301 301 297 296 298 302 304 301 299 297 300 300 299 298 297 297 297 295 297 296 296 295 295 294 294 293 293 293 293 292 292 293 292 292 291 291
289 290 290 290 289 289 289 291 290 290 291 290 289 289 289 290 290 291 293 294 293 293 293 293 293 294 294 294 294 294 294 295 297 297 296 295 299 300 300 301 299 298 294 297 303 303 301 295 298 298 294 296 296 295 295 296 295 296 296 295 294 294 293 293 293 293 293 292 292 292 292 292 291 291
289 290 293 294 291 290 290 291 290 290 290 289 289 289 289 289 289 290 292 293 294 294 293 293 293 292 293 293 293 294 294 293 294 295 293 296 299 299 300 300 301 298 295 296 300 300 300 293 296 296 290 291 292 294 294 295 295 295 294 294 294 293 293 293 293 293 293 293 293 293 292 292 291 291
288 289 291 292 292 292 292 290 290 290 290 289 289 288 288 288 288 290 291 292 292 293 293 294 294 294 294 295 295 296 294 293 295 296 296 297 299 299 301 301 300 297 296 295 300 300 294 292 293 294 290 290 292 292 293 293 294 294 294 294 294 293 293 293 293 293 293 293 293 293 292 292 291 290
288 289 289 290 290 289 289 289 289 289 289 289 289 289 288 287 287 290 291 292 292 292 293 293 293 294 295 296 296 296 296 297 298 297 298 300 302 302 302 302 302 300 301 295 299 300 294 295 293 296 295 292 288 289 291 291 293 293 293 293 292 293 293 293 292 293 292 293 292 292 292 292 291 289
287 287 288 289 290 289 289 289 289 289 289 289 289 288 288 289 290 291 291 291 292 292 292 293 293 294 294 295 296 296 296 297 299 300 301 302 303 303 303 303 302 302 303 295 297 301 295 294 294 293 293 293 291 287 290 290 292 292 293 293 292 292 292 292 292 292 292 292 292 292 292 292 292 290
287 287 288 288 289 289 288 288 288 289 288 288 289 289 289 289 289 289 291 291 291 291 291 291 291 292 293 294 295 295 295 296 296 297 298 300 302 304 305 305 304 302 303 296 295 300 296 292 295 293 293 292 290 290 287 289 291 291 292 292 292 292 292 291 291 291 291 291 291 291 291 292 292 292
287 288 288 289 289 288 288 288 288 288 288 288 288 288 288 288 288 288 289 289 289 289 289 290 290 291 291 292 293 294 294 294 294 295 297 299 301 303 305 306 308 307 307 297 297 300 300 296 295 294 293 293 289 288 288 287 288 291 291 291 292 292 292 292 291 290 291 290 290 291 291 291 291 291
288 287 288 288 288 288 288 288 288 288 288 288 288 288 288 288 288 288 288 288 288 288 288 287 288 289 291 292 292 293 294 294 294 295 297 299 301 303 305 306 305 306 306 298 297 300 302 299 295 296 296 293 290 288 287 290 289 289 288 291 291 291 292 291 291 291 291 290 288 289 288 288 289 290
288 288 288 288 288 288 288 287 288 288 288 287 287 287 287 288 288 287 287 287 287 287 287 287 288 289 290 292 293 295 295 294 294 294 295 297 299 301 304 305 304 305 302 298 298 300 301 300 296 296 296 295 293 292 290 287 288 288 289 288 287 289 290 291 291 290 289 289 289 288 288 289 289 290
288 287 287 287 287 287 288 288 287 287 287 287 287 287 288 288 287 287 287 287 287 286 287 287 288 289 291 292 294 294 295 294 293 293 293 295 297 299 300 300 298 297 298 298 298 299 300 299 297 296 295 294 294 292 290 288 287 288 288 288 288 288 289 290 289 289 289 288 289 289 289 290 290 290
287 287 288 287 287 287 287 287 287 287 288 287 287 288 288 288 288 287 287 287 287 287 287 288 289 290 292 293 293 293 293 293 293 294 293 294 295 297 299 299 296 293 295 296 297 298 299 298 297 297 294 293 293 292 291 290 288 287 288 288 287 285 287 289 289 289 289 289 289 289 289 289 289 290
287 287 287 287 287 287 286 286 286 287 287 287 286 287 287 287 288 288 289 289 288 288 289 289 290 290 291 291 292 292 292 293 293 294 294 294 296 297 297 296 293 291 292 294 295 296 295 298 297 297 296 294 292 291 291 290 288 288 288 289 288 288 289 288 289 289 290 289 288 287 287 287 288 287
286 286 285 285 285 285 285 285 285 285 286 286 286 287 287 287 288 288 287 287 287 288 288 288 288 288 290 291 291 291 291 292 292 293 294 296 297 296 297 296 292 291 291 291 292 294 295 295 295 296 295 295 294 293 290 287 288 289 289 289 289 288 289 290 289 289 289 288 286 285 285 286 286 287
284 284 284 284 284 284 285 284 285 285 285 286 286 286 287 287 287 287 287 287 287 288 287 288 288 288 289 289 291 291 291 292 292 293 293 295 297 295 294 294 292 293 292 292 292 291 292 292 292 291 291 290 291 292 292 289 288 289 289 289 288 287 289 290 289 289 289 287 285 284 284 284 285 286
284 283 283 284 284 285 285 284 285 285 286 286 286 287 287 287 287 287 287 288 287 287 287 287 288 288 289 289 290 290 290 291 292 293 293 295 296 295 294 293 291 292 292 291 290 291 291 290 290 289 289 290 289 290 292 292 290 289 289 289 289 287 287 289 289 288 287 286 286 284 283 284 284 285
283 284 283 283 284 284 284 284 285 285 285 286 286 287 287 287 287 287 286 287 288 288 287 287 287 288 288 289 289 290 290 290 291 292 291 293 293 294 295 293 291 291 292 291 290 291 291 291 291 289 287 287 286 285 286 291 292 290 287 286 287 287 287 288 287 287 286 285 286 285 283 282 283 284
283 283 283 283 284 284 284 284 284 285 285 285 285 286 287 287 287 287 288 288 288 288 288 288 288 288 288 289 289 289 289 289 290 290 291 292 292 292 291 290 289 291 290 290 291 291 291 291 291 290 288 287 286 284 283 285 288 291 290 286 286 286 286 286 286 285 285 285 285 285 284 283 283 284
283 283 283 283 283 284 284 284 284 284 285 285 285 286 287 288 288 288 289 288 287 288 288 288 288 288 289 289 289 289 290 290 290 290 290 290 290 290 290 289 289 289 289 289 290 291 291 291 291 290 289 287 285 283 282 285 286 286 290 289 286 285 286 285 284 284 283 284 284 284 284 284 283 283
283 283 283 283 283 284 283 284 284 284 285 285 285 285 286 287 288 288 288 288 288 288 288 289 289 289 289 289 289 289 289 289 289 289 289 289 290 290 289 288 288 288 288 288 289 290 290 290 290 290 290 288 286 286 286 285 284 284 287 290 287 285 286 286 284 284 283 282 283 283 283 283 284 285
283 283 283 283 283 284 284 284 284 284 284 285 285 286 286 286 287 288 288 288 288 288 289 289 289 289 289 290 289 289 289 288 289 289 289 289 288 289 288 288 288 288 288 287 287 288 289 289 288 288 287 287 287 288 287 285 284 285 285 287 289 288 286 286 284 283 282 283 283 283 281 282 281 281
283 282 283 283 283 283 283 284 284 284 285 285 285 285 286 286 286 287 288 288 288 288 288 289 289 289 289 289 289 289 288 288 288 288 288 288 287 287 287 287 287 287 287 286 287 287 286 286 286 286 287 287 287 288 287 284 282 282 283 284 288 288 288 288 286 285 283 284 284 282 282 281 280 278
283 282 283 283 283 283 284 283 284 284 284 285 285 285 285 286 286 287 287 287 288 288 289 289 289 289 288 288 288 288 288 288 288 287 288 288 287 287 287 287 287 287 287 286 285 284 285 287 287 287 288 288 288 286 283 282 281 281 282 283 284 287 288 287 288 287 286 285 283 281 279 279 280 279
283 282 283 283 284 284 283 283 284 284 284 284 285 285 285 285 286 286 286 286 287 288 289 289 289 288 288 288 289 289 288 288 287 287 287 287 287 287 287 287 287 287 285 284 284 285 286 287 287 287 288 287 286 285 282 281 282 282 282 282 282 284 285 287 287 287 286 287 286 284 282 281 279 277
283 283 283 283 283 283 283 283 283 284 284 284 285 285 285 285 285 286 286 286 286 287 287 288 288 288 288 288 288 288 288 288 288 287 287 287 288 287 287 286 285 284 284 284 284 285 286 286 287 287 286 284 285 283 282 282 281 282 282 282 283 283 282 284 285 285 285 285 286 286 286 285 284 284
283 283 283 283 283 283 283 284 284 284 284 284 284 284 285 285 285 285 286 286 286 287 287 287 287 287 287 287 287 287 287 287 288 287 287 287 286 286 286 285 285 284 284 285 284 284 285 285 285 285 284 284 284 284 283 283 282 282 282 282 282 282 283 283 283 282 282 282 284 286 286 286 285 285
Wind_Speed
0 1 1 1 1 2 2 3 4 4 4 4 4 5 7 8 9 8 7 6 5 2 2 3 3 3 4 5 5 6 5 6 8 7 9 9 8 12 19 20 20 20 21 22 22 22 22 22 20 18 18 19 20 20 19 18 17 16 14 13 13 11 9 10 10 9 11 10 9 9 10 9 8 7
1 1 1 1 2 2 2 3 3 3 3 4 4 5 5 6 8 8 10 10 5 6 2 4 5 3 4 4 5 4 6 10 10 9 10 9 8 13 18 20 20 21 21 21 22 23 22 22 20 18 18 18 19 19 19 18 17 16 15 15 14 13 11 11 10 9 11 10 12 12 11 10 9 8
1 1 2 2 2 2 2 2 3 3 3 4 4 4 4 4 5 8 9 11 5 4 6 4 3 3 4 5 4 4 4 5 6 6 7 8 12 14 13 19 20 21 21 22 22 23 22 22 22 20 20 20 20 19 19 19 18 17 17 17 16 14 13 13 12 12 13 13 13 12 11 11 9 8
2 2 2 3 3 3 2 3 3 3 3 3 4 4 4 4 4 5 8 10 12 6 6 7 6 5 6 7 7 8 6 5 5 5 6 7 9 7 7 13 18 19 20 21 22 22 22 22 22 21 21 21 21 20 20 20 19 18 18 18 17 16 16 12 14 14 14 14 13 12 11 10 9 8
3 3 3 3 3 3 3 3 3 3 3 2 3 3 4 5 4 5 6 9 10 9 5 5 5 6 6 7 6 8 7 7 5 4 5 4 5 6 7 7 14 18 19 20 21 21 22 22 22 21 22 22 22 21 21 20 20 18 18 18 18 17 16 14 13 14 13 14 12 11 11 10 8 7
4 3 4 4 4 4 4 3 3 3 3 3 3 3 4 5 5 4 6 7 7 10 7 6 6 6 5 8 5 7 8 8 5 6 6 4 5 7 6 7 7 17 19 20 20 21 22 22 22 21 21 22 22 21 21 20 19 19 18 18 18 18 18 17 16 14 14 14 12 12 11 10 8 7
4 5 4 5 4 3 4 4 3 3 3 2 3 4 4 5 5 4 6 7 8 8 9 6 6 4 4 5 8 8 8 8 6 6 7 7 5 5 6 7 6 11 18 19 20 21 22 22 22 23 22 22 22 22 21 20 19 19 19 19 19 18 18 17 16 15 14 14 14 13 12 10 9 7
5 5 5 5 4 4 4 4 4 4 3 3 4 4 4 4 4 4 5 5 6 6 8 7 7 7 8 7 7 8 7 7 6 5 5 3 5 5 5 7 7 9 15 18 19 19 20 21 22 22 22 22 22 22 21 20 19 18 18 18 18 17 17 17 16 15 15 16 15 15 13 11 10 8
6 5 5 5 4 4 5 5 5 4 4 6 6 6 5 4 4 4 3 4 6 7 9 9 6 6 7 7 8 8 9 8 5 2 4 6 6 5 5 4 5 5 10 15 17 17 18 18 20 22 22 22 21 21 21 20 19 19 18 18 18 18 18 17 17 16 15 15 14 14 13 12 11 9
5 6 6 5 5 6 7 7 6 5 7 7 6 6 6 6 5 4 4 3 4 6 8 9 10 5 6 7 7 7 6 8 8 6 4 3 3 4 5 5 4 3 4 6 9 12 14 16 18 18 20 21 21 21 21 20 20 20 20 20 19 19 18 18 17 17 16 15 14 12 12 12 10 9
4 4 5 5 5 6 6 7 7 7 7 6 7 6 6 5 5 5 4 4 4 4 6 8 8 8 5 5 9 8 6 7 7 8 6 6 5 4 6 7 4 2 4 6 11 12 12 14 14 18 20 20 20 19 19 19 21 21 21 21 20 19 18 18 17 16 15 15 14 13 12 11 10 8
5 5 6 6 6 7 7 7 8 7 8 6 7 6 5 6 7 7 7 7 6 5 6 7 9 7 7 5 6 6 6 6 4 5 6 9 7 6 6 5 5 2 2 4 4 6 7 9 12 14 16 17 17 19 18 20 20 21 21 21 20 19 18 18 17 17 16 15 15 14 12 9 5 5
6 6 6 6 7 8 11 13 11 10 9 7 8 7 5 7 8 8 8 8 7 7 7 8 7 8 7 6 5 7 6 5 7 5 3 6 7 5 4 4 2 3 4 3 3 6 7 8 8 9 9 12 16 14 16 14 19 21 21 21 20 19 18 18 17 17 16 15 14 13 12 11 9 6
6 7 6 7 12 14 14 13 13 13 13 12 10 9 9 9 9 9 9 9 8 8 9 9 8 9 9 6 5 5 6 7 5 6 5 6 6 1 2 3 4 3 4 4 6 7 6 7 7 7 10 10 9 8 10 11 13 16 19 19 19 19 18 18 17 17 16 16 14 13 13 12 10 8
7 6 6 6 8 11 11 11 13 13 13 13 13 14 14 12 11 10 10 10 8 8 9 8 8 9 11 9 6 7 8 7 7 6 5 5 4 4 5 7 2 4 7 7 5 6 5 7 9 9 10 9 9 9 11 14 16 18 18 19 19 19 18 18 17 17 16 15 13 12 11 10 8 7
6 7 7 6 6 7 8 9 8 11 13 14 15 15 15 15 15 14 12 11 10 9 9 10 9 8 10 9 7 7 4 7 7 6 6 5 6 6 6 5 6 1 6 6 5 7 2 5 7 8 9 7 7 10 11 15 18 19 20 21 21 21 21 20 19 18 17 16 15 13 12 10 10 9
7 7 8 8 7 6 11 12 9 8 9 12 15 15 16 17 17 17 18 18 15 12 12 11 12 11 9 10 10 7 8 6 9 7 7 5 4 6 7 7 8 1 2 3 4 7 2 5 6 8 6 5 5 7 9 16 18 19 21 21 21 21 21 21 20 19 18 16 16 14 13 11 10 10
8 8 9 9 9 6 7 7 8 8 9 9 10 10 10 10 12 15 16 18 20 18 14 13 14 11 7 11 9 8 6 6 7 7 8 6 6 6 8 6 4 2 7 8 4 2 3 4 5 8 4 4 5 6 8 11 12 15 18 18 19 21 21 21 21 20 18 18 16 15 14 12 11 10
9 9 9 9 10 9 8 7 8 9 9 9 10 10 10 10 10 10 10 10 9 10 10 13 14 13 11 11 10 9 8 10 8 5 7 7 7 8 1 0 1 2 6 6 6 7 2 3 5 7 4 3 3 2 6 13 15 15 16 16 16 17 18 19 19 19 18 18 16 16 14 13 11 10
8 8 9 9 10 10 9 10 13 13 10 10 11 12 11 11 11 11 11 13 14 13 11 10 11 10 11 12 10 8 5 3 6 9 10 9 8 8 7 10 4 7 4 7 8 4 4 4 7 4 3 5 4 4 4 9 13 13 14 15 15 16 17 18 17 17 16 16 16 16 15 13 12 11
8 8 8 9 9 10 10 11 13 14 13 11 12 12 12 11 11 12 9 13 17 18 19 21 21 21 19 18 17 16 17 14 9 9 10 12 8 8 10 9 6 8 6 6 7 6 6 5 7 4 2 3 4 5 5 6 10 12 13 14 15 15 15 15 15 15 15 15 15 14 14 12 11 9
8 8 15 15 11 11 11 12 13 13 11 11 11 11 12 13 12 12 8 9 10 15 18 20 20 20 19 20 21 21 20 18 11 9 13 10 6 11 10 10 8 5 6 7 8 5 6 4 4 4 2 1 1 4 4 5 7 11 12 15 15 14 14 14 14 15 15 15 14 13 12 11 9 5
8 8 10 16 16 14 14 16 15 15 13 12 12 11 12 13 13 10 6 10 9 8 10 11 11 12 16 16 15 15 19 18 16 13 14 10 11 13 10 10 7 7 8 7 11 9 4 7 6 6 4 3 2 4 4 6 6 6 7 8 10 14 14 14 13 13 13 12 12 11 11 11 8 4
8 8 8 10 13 15 16 17 19 19 18 15 13 12 14 16 18 8 9 11 9 10 10 11 11 14 12 11 12 12 12 12 13 14 13 12 11 11 10 10 11 11 6 6 13 10 3 6 6 7 5 4 3 2 4 6 6 7 7 8 7 11 12 12 11 13 13 12 12 12 11 11 8 4
10 9 8 8 12 18 19 20 20 20 19 19 16 13 12 11 10 9 10 10 12 12 11 10 11 11 11 11 11 11 11 10 9 9 10 10 10 11 10 10 11 12 8 7 16 9 6 7 7 6 4 1 3 5 3 4 4 6 7 8 7 7 7 6 5 7 9 12 12 12 11 11 10 6
9 9 9 8 11 15 17 18 19 20 20 21 15 16 17 18 16 14 11 10 9 10 11 12 12 11 11 11 11 11 11 10 10 9 10 10 11 11 11 11 11 10 10 9 20 13 7 5 9 9 5 6 2 4 6 3 3 4 6 6 6 7 8 7 6 6 6 5 6 6 7 9 8 8
11 10 12 13 18 20 21 21 22 22 22 20 17 21 21 21 21 19 14 14 13 13 12 12 13 13 12 12 11 10 9 8 8 8 9 10 11 11 11 11 12 12 7 9 14 12 11 6 8 11 10 7 7 3 4 5 4 5 5 5 5 6 6 7 7 6 5 5 4 8 8 8 9 8
10 10 10 12 17 19 20 22 21 21 20 17 21 21 23 22 21 15 14 13 14 14 14 14 14 14 13 12 11 11 9 8 8 8 8 10 11 12 11 11 12 12 9 9 12 13 12 9 9 10 11 12 10 9 7 2 5 9 8 5 6 6 7 7 6 5 5 5 5 5 5 4 4 5
12 14 21 23 24 24 24 26 26 23 24 26 25 26 25 24 15 14 13 14 13 14 15 14 13 13 13 12 11 9 8 8 7 7 7 9 10 11 12 11 9 10 8 7 11 12 11 11 10 9 8 8 9 6 8 7 8 8 9 10 6 6 6 6 7 7 7 6 6 6 5 5 5 4
24 24 24 25 25 24 22 18 15 13 14 19 23 24 24 16 14 14 14 14 14 14 13 12 12 10 9 10 10 9 8 8 9 8 8 8 9 9 9 8 8 4 5 8 11 11 11 9 9 10 9 7 7 9 8 10 6 7 8 8 7 7 4 5 4 5 7 6 5 4 4 4 5 6
13 15 15 14 17 18 23 24 23 23 21 18 17 14 14 13 13 13 13 14 14 15 14 13 13 12 11 10 10 10 9 10 9 8 8 8 9 8 8 8 7 4 1 3 7 10 10 9 9 11 11 8 6 7 8 9 10 9 7 7 11 9 7 7 6 6 6 6 6 5 4 4 4 4
13 14 14 16 13 13 13 13 11 11 11 12 13 12 12 12 13 15 19 18 14 13 12 11 10 10 10 11 11 9 10 10 8 8 9 9 9 8 7 7 7 4 4 4 3 3 5 7 9 8 10 12 11 8 7 8 10 10 9 8 5 6 8 8 8 6 5 7 7 5 4 4 5 5
12 10 10 9 10 9 10 10 10 10 10 10 11 13 12 11 12 12 11 13 14 13 12 13 13 12 11 11 10 10 9 9 9 8 9 9 10 8 8 10 7 8 8 7 6 6 7 7 6 7 6 5 8 13 12 8 5 8 11 9 9 8 7 6 7 7 6 7 6 6 5 4 4 5
11 10 9 9 10 10 9 10 10 10 9 10 10 10 12 12 11 11 11 12 13 12 12 12 11 11 10 10 10 10 10 8 8 9 10 9 9 9 9 9 8 8 9 9 9 9 9 9 10 10 11 10 9 6 4 12 11 9 8 9 10 9 7 8 7 7 6 5 7 7 6 5 4 4
9 9 9 10 9 10 9 10 10 10 10 10 10 10 9 9 11 11 11 11 10 10 10 11 11 10 10 9 9 9 9 9 8 8 8 9 9 9 9 8 8 8 9 10 10 10 11 12 12 12 10 9 9 8 11 5 13 10 8 8 8 9 8 7 7 7 8 6 7 8 6 5 4 2
8 8 9 9 9 9 9 9 10 10 9 9 9 9 9 9 8 9 10 10 9 10 10 10 10 10 10 9 9 9 8 8 8 8 7 8 9 8 9 9 9 9 9 10 11 10 12 13 14 14 13 9 9 7 3 11 6 13 13 8 7 8 7 7 6 7 8 7 8 9 8 6 5 3
9 9 9 9 9 9 10 10 10 10 10 9 9 9 9 9 8 9 11 10 10 10 10 10 10 9 9 9 8 8 8 8 8 7 7 7 8 8 7 6 7 9 9 8 9 11 11 12 10 13 13 12 11 11 6 2 9 9 10 12 8 6 8 6 7 7 5 7 6 6 7 7 5 4
8 9 9 9 9 10 9 9 9 9 9 9 9 9 8 9 8 9 8 8 9 8 9 9 9 9 9 8 9 8 8 7 7 7 6 6 7 7 8 9 8 8 9 9 9 10 8 9 11 12 15 15 13 12 11 5 5 4 4 9 10 8 7 8 7 7 5 4 6 4 5 7 5 4
8 9 9 9 10 9 10 10 9 10 10 9 9 8 8 8 7 7 7 8 8 8 8 8 9 8 9 9 9 8 8 7 7 6 6 6 7 8 7 9 9 7 10 9 8 8 7 8 7 6 8 15 17 16 15 14 8 5 5 9 10 9 7 8 8 7 7 6 5 5 5 4 6 7
9 9 9 9 9 9 9 9 9 9 9 9 9 8 8 8 7 6 6 7 7 8 8 7 8 9 9 8 8 7 7 8 8 6 7 6 5 7 8 8 10 11 10 11 10 7 7 7 5 6 8 9 10 11 11 11 8 6 7 6 7 10 10 9 9 9 7 6 8 9 7 5 4 1
9 9 9 9 9 9 9 9 9 9 9 9 9 8 7 7 7 7 6 6 6 7 8 8 7 6 6 6 7 7 6 5 6 7 7 7 8 8 11 11 9 8 10 8 8 9 7 5 10 16 17 14 15 14 13 11 10 7 7 5 9 8 8 12 12 11 9 8 8 9 8 7 6 3
9 9 9 9 9 10 9 10 10 9 9 9 8 8 8 7 6 7 6 8 8 8 8 8 7 6 5 6 6 6 8 8 7 7 8 9 9 10 13 12 11 9 11 11 9 9 9 12 15 14 13 14 13 13 11 11 11 9 7 7 7 10 13 13 10 9 10 10 11 8 5 4 5 5
9 9 9 9 9 9 9 9 9 9 9 8 8 8 7 7 6 5 4 2 4 6 6 6 6 6 6 6 6 7 7 7 8 9 9 10 12 12 10 9 10 9 10 11 10 11 10 11 12 12 11 10 8 11 13 10 10 10 10 9 9 8 9 13 16 16 13 11 8 5 4 6 6 4
9 9 9 9 9 9 9 9 9 9 9 8 8 7 7 7 6 5 4 3 3 4 5 6 6 7 7 6 6 6 6 7 8 9 10 9 10 11 10 10 12 12 12 13 12 10 10 10 10 11 11 10 10 13 13 13 11 10 10 10 9 10 10 8 9 11 12 14 12 13 13 10 7 8
9 9 9 9 9 9 9 9 9 9 9 8 8 8 7 6 6 5 4 4 4 5 5 6 7 6 7 7 8 8 7 8 8 8 9 9 9 10 12 13 13 13 13 13 14 12 10 10 9 9 11 10 10 12 12 12 12 11 11 12 11 9 8 8 9 9 7 7 10 12 14 14 14 13
Wind_Direction
204 269 276 272 249 281 299 310 314 313 316 312 305 304 307 309 299 299 291 277 273 285 217 268 289 256 267 251 219 225 238 235 226 245 241 230 223 207 209 210 210 209 209 207 206 206 208 206 203 200 197 190 188 191 190 188 187 189 191 194 194 195 198 191 200 205 207 205 188 158 138 137 139 147
237 235 272 260 279 262 280 293 303 312 309 308 313 315 314 314 304 299 292 289 272 281 245 231 263 290 283 282 271 231 244 245 225 221 221 228 227 213 206 208 208 208 208 208 207 207 208 206 201 198 195 191 191 192 191 189 188 187 189 189 189 187 187 181 179 186 197 182 143 148 154 156 158 167
211 234 248 255 254 247 260 274 283 286 295 291 293 297 303 306 307 307 301 292 282 186 263 237 254 271 289 279 285 282 253 250 228 227 228 230 231 222 213 211 209 208 207 207 207 207 207 205 201 198 197 194 194 194 193 192 190 189 186 185 184 181 176 173 169 177 183 159 160 163 164 163 168 175
256 261 263 257 256 251 244 264 272 277 278 285 300 302 301 292 282 292 297 287 289 297 286 275 266 260 269 278 279 275 279 257 223 222 230 237 247 226 231 219 215 212 210 208 208 206 206 204 201 199 197 196 195 193 195 194 191 187 186 183 181 179 176 161 167 176 176 166 171 169 166 169 174 177
282 278 279 278 267 265 271 263 263 265 271 296 297 301 304 300 302 300 303 298 299 301 305 292 286 273 261 268 242 258 265 274 275 252 241 225 213 221 223 221 214 214 213 212 210 208 206 205 202 199 198 196 194 193 195 194 191 186 184 182 180 177 171 163 166 179 180 172 177 169 168 171 179 180
290 281 287 283 283 272 260 263 264 253 268 284 304 299 294 297 295 295 293 292 292 295 302 302 306 297 270 262 251 248 256 260 254 252 252 233 213 218 225 220 219 213 213 211 211 210 207 206 203 200 199 197 194 194 194 194 190 185 182 181 180 177 174 171 171 177 179 175 174 170 172 175 181 189
290 293 285 287 281 278 274 269 264 258 258 264 282 281 276 278 282 294 294 293 294 298 297 313 304 304 299 272 280 266 253 253 242 241 246 236 223 223 215 219 228 209 213 215 213 211 208 206 203 202 200 197 196 194 194 192 189 185 181 180 180 177 174 171 170 174 174 174 174 172 174 177 184 196
286 277 283 281 280 273 280 285 284 268 259 270 276 275 267 264 276 287 299 322 330 320 310 312 321 323 321 307 287 285 276 267 255 229 260 260 236 232 222 220 228 217 209 213 216 216 216 210 205 203 201 199 197 196 194 190 186 183 181 178 177 176 173 171 170 171 172 175 176 177 176 177 182 196
281 278 271 276 276 281 287 290 282 271 279 285 284 282 283 278 275 289 299 310 309 304 297 297 291 303 300 299 296 290 289 278 263 246 231 239 242 243 242 243 239 235 206 211 215 219 221 218 211 205 203 201 198 196 192 187 182 180 178 177 176 176 174 173 170 170 171 173 173 176 177 181 186 197
283 284 283 279 276 281 283 284 281 278 278 279 275 275 274 272 270 271 278 269 277 283 288 292 296 293 299 308 297 303 290 287 282 277 266 276 257 240 257 246 237 211 188 197 212 214 219 222 222 215 207 205 201 197 193 186 181 179 178 178 179 179 177 174 171 171 170 168 164 165 176 185 192 197
275 281 291 296 296 291 288 287 288 288 281 277 277 272 275 276 279 276 273 274 269 272 284 287 280 286 269 275 296 303 304 281 262 260 261 263 236 231 224 244 244 241 215 215 205 206 205 210 211 212 212 210 206 199 196 188 184 180 179 179 180 179 177 174 171 167 163 159 156 159 172 182 192 198
268 268 273 280 287 290 291 288 285 284 284 282 277 273 279 285 287 282 279 273 270 270 276 276 289 284 287 272 266 283 305 299 285 252 244 253 251 235 230 238 236 251 212 218 225 225 208 214 215 218 217 215 207 203 199 194 187 183 182 181 180 178 176 173 169 164 163 162 162 159 154 150 168 207
261 262 262 267 267 269 273 279 286 286 286 290 286 279 277 281 282 282 279 275 270 268 269 276 276 284 284 278 279 291 293 277 283 299 278 267 267 252 228 257 268 208 203 219 205 210 201 202 203 202 208 214 208 205 201 202 194 186 183 180 177 176 175 171 167 165 164 163 160 156 157 163 177 187
265 262 262 260 263 266 268 269 272 276 277 274 270 278 278 275 274 272 275 272 272 273 268 264 276 279 278 280 275 273 270 281 283 290 291 269 276 316 252 296 240 195 195 199 216 220 194 194 204 201 214 218 189 197 195 198 191 189 185 178 176 174 172 169 166 163 162 159 155 158 168 169 168 177
273 271 265 263 264 267 269 269 266 266 267 267 272 274 275 271 266 270 266 264 262 264 264 265 260 263 275 272 269 270 279 277 276 274 267 255 282 244 240 251 299 208 186 212 229 236 198 186 199 204 216 208 189 195 202 191 184 182 178 176 174 172 170 168 164 161 161 158 154 162 165 160 162 178
264 265 263 258 254 256 253 257 260 261 260 261 262 261 261 262 262 257 260 268 266 254 262 262 255 259 258 274 266 271 279 280 286 274 265 258 248 250 242 250 252 290 184 197 213 247 133 202 215 215 219 202 190 201 191 179 183 177 180 179 176 172 170 166 162 161 162 162 161 163 165 166 178 186
265 263 264 263 251 245 251 262 265 264 266 264 263 262 263 261 257 257 256 253 254 265 260 260 262 248 261 264 261 256 260 259 270 279 273 259 237 237 246 244 257 333 189 160 217 240 202 183 213 232 215 173 173 194 191 186 184 184 184 182 177 172 168 164 161 161 163 162 162 164 166 171 181 189
267 264 265 268 267 254 255 255 260 263 264 266 268 266 263 262 260 256 248 248 249 247 251 255 258 256 235 254 259 256 255 269 275 280 270 268 256 249 245 236 185 215 179 186 184 257 231 189 200 231 216 158 162 186 182 174 185 188 187 184 177 172 168 164 162 163 163 164 163 163 170 175 183 190
263 263 263 263 265 264 257 249 249 256 258 262 264 265 263 261 262 258 256 250 248 245 243 249 253 258 250 252 256 259 261 260 266 283 305 305 288 274 311 6 213 161 203 181 158 236 170 140 190 231 190 126 153 158 176 179 183 185 186 184 178 171 167 164 163 164 164 164 163 170 176 179 182 187
262 261 261 264 265 263 261 257 252 253 259 263 265 266 267 267 264 260 253 253 252 254 256 252 251 251 247 244 246 248 244 283 297 298 295 291 284 279 253 244 185 224 201 189 173 216 229 187 196 214 122 135 157 149 161 180 180 181 178 178 176 172 168 165 164 163 165 165 170 175 178 179 181 185
266 265 262 261 264 262 260 256 252 251 252 259 261 265 268 267 268 265 260 250 249 248 250 254 257 259 259 254 251 251 257 262 273 285 282 269 271 262 254 247 215 228 171 209 200 188 226 183 189 165 93 152 169 166 174 162 180 171 171 171 172 172 171 168 165 165 167 171 175 176 173 174 177 172
272 266 266 267 266 266 264 259 254 253 250 258 260 265 271 271 267 265 261 260 250 242 244 246 249 251 253 252 251 251 250 249 237 235 250 253 251 249 241 249 228 222 183 202 173 172 219 132 169 128 81 66 249 182 167 151 160 166 169 170 172 173 174 173 169 169 173 176 176 172 166 167 153 153
272 274 269 271 273 271 271 268 266 261 258 263 264 267 268 264 262 259 265 262 263 252 250 248 248 252 250 250 247 246 241 236 230 233 243 244 237 242 234 234 235 238 236 190 173 194 194 146 193 147 115 228 230 155 158 159 160 164 160 166 172 178 174 173 170 173 175 174 168 163 160 153 145 147
281 273 275 272 268 269 269 267 264 262 257 259 266 266 264 266 268 267 254 251 253 258 252 253 246 249 247 241 235 234 233 233 236 239 233 225 226 237 236 225 219 230 224 157 180 194 163 167 169 196 178 142 229 167 150 165 164 169 160 162 173 177 171 169 174 177 177 172 167 163 158 155 155 148
284 279 263 257 257 261 264 265 266 266 265 265 267 260 256 252 267 273 265 263 258 263 260 255 251 249 247 243 236 231 229 225 225 227 225 228 231 235 242 235 227 235 218 177 180 186 184 176 174 167 213 93 114 117 138 129 153 164 168 167 164 162 162 169 157 173 182 174 169 161 159 162 167 163
275 275 277 272 266 263 263 262 261 261 260 260 258 259 259 260 259 260 263 265 258 253 255 255 255 253 248 244 238 233 228 220 220 231 241 246 244 238 243 245 241 235 220 178 174 186 151 183 179 169 171 147 121 121 126 130 122 142 150 160 162 158 159 160 161 168 171 171 162 159 157 161 170 179
274 270 270 272 272 270 269 268 266 264 262 262 260 262 262 263 264 266 264 264 263 260 259 259 257 253 247 243 238 231 228 221 217 227 234 247 252 247 244 240 247 248 230 161 186 179 183 186 165 174 180 177 135 128 121 146 159 136 142 155 152 148 157 156 164 163 166 158 142 140 137 160 177 181
274 275 272 275 277 277 276 274 272 270 267 264 263 260 257 255 255 254 255 250 249 251 250 248 249 249 245 243 238 231 226 220 214 223 231 241 247 252 249 242 240 243 228 173 181 188 190 183 179 193 172 165 166 169 165 72 122 158 156 134 136 146 153 156 152 143 141 129 129 138 135 147 153 145
280 281 282 283 282 280 277 274 272 270 266 262 260 259 258 257 256 252 248 248 246 246 244 243 244 243 241 239 240 231 216 209 208 218 229 237 245 251 255 258 252 241 215 178 181 187 190 185 180 172 164 173 166 162 144 156 149 159 154 142 146 160 152 152 152 150 141 136 141 148 159 127 106 132
279 279 279 278 277 276 274 273 268 263 261 255 253 252 251 248 245 241 241 238 237 239 240 236 235 235 233 233 232 224 213 208 217 214 226 233 243 241 246 252 249 241 212 181 179 185 188 182 167 163 158 158 159 148 149 131 139 141 147 144 122 88 112 136 133 129 132 138 136 113 85 118 147 152
282 281 281 281 278 276 274 271 269 267 266 263 259 255 248 243 238 235 232 232 233 236 236 238 237 235 232 230 221 215 209 219 221 210 224 229 239 231 228 223 225 202 171 183 186 184 177 164 157 155 150 144 124 141 142 129 129 146 148 145 150 156 157 137 141 130 122 119 112 100 100 105 109 121
290 290 286 282 277 275 272 270 268 261 256 253 254 251 246 242 237 236 235 234 234 233 231 233 233 232 228 224 220 214 212 216 215 210 219 221 232 222 210 211 206 163 131 110 93 87 125 146 156 159 153 154 148 135 123 130 142 146 144 145 120 96 126 141 127 113 108 98 79 70 66 89 115 113
294 287 281 274 277 272 272 272 268 265 258 254 249 249 247 241 236 233 227 229 229 229 228 231 230 231 222 225 214 215 217 216 215 212 222 221 225 216 201 207 177 166 153 142 132 119 107 92 78 94 94 87 125 138 132 113 126 142 143 142 129 123 122 112 112 109 100 90 96 106 95 70 82 110
296 291 284 282 279 279 277 276 275 272 267 263 258 251 244 240 234 229 226 225 228 225 225 228 227 226 220 220 215 213 217 218 217 216 215 222 215 208 202 198 182 173 155 149 143 135 120 108 101 86 82 76 61 52 118 134 136 142 133 132 126 127 128 126 124 129 131 135 136 117 100 79 59 63
294 289 288 288 283 281 282 282 282 279 278 272 269 264 254 238 233 230 227 225 222 223 222 223 223 223 218 217 211 213 211 214 217 219 214 218 212 207 196 187 172 166 157 146 145 145 136 132 122 110 98 97 80 51 32 60 135 121 118 109 121 125 134 140 134 129 123 126 123 113 100 91 85 37
294 293 294 294 293 291 288 287 286 285 280 280 276 277 268 249 230 225 228 222 215 218 218 218 218 217 215 214 214 212 215 212 216 215 210 211 212 204 194 184 168 165 159 154 148 150 147 144 140 135 134 130 121 114 84 7 58 142 130 129 120 124 130 133 123 120 122 128 129 129 131 143 154 169
305 304 301 299 299 297 296 294 294 290 286 283 284 280 271 260 241 224 227 215 216 216 215 213 214 211 211 210 214 217 216 213 217 214 210 206 202 190 169 154 156 153 149 153 152 153 151 149 149 141 134 132 132 128 108 4 37 22 126 126 126 121 130 120 118 116 128 134 136 135 140 143 158 170
303 306 306 306 305 304 299 297 297 296 293 291 289 287 276 259 250 238 223 213 216 215 213 212 213 208 209 207 211 214 214 209 212 207 204 187 177 171 163 151 151 151 146 143 150 156 159 151 154 157 146 141 134 128 125 92 103 34 50 122 126 131 120 125 123 131 122 110 119 116 122 131 141 140
313 311 311 310 310 307 307 305 302 299 298 298 295 291 290 279 258 241 223 216 211 209 210 209 210 206 205 207 207 207 203 199 200 199 185 181 174 160 145 141 135 134 130 133 139 143 145 149 152 159 155 148 154 156 146 139 126 102 66 112 124 120 140 136 130 124 127 118 101 83 64 77 80 73
316 313 309 310 310 310 309 308 305 303 302 300 295 292 290 289 279 257 232 220 210 205 205 204 201 202 205 202 199 192 187 187 183 168 168 160 151 137 137 140 140 143 139 139 138 137 134 130 124 119 100 83 88 95 97 94 91 82 77 61 119 150 147 141 138 137 126 130 129 120 121 119 114 28
319 319 319 317 315 316 316 314 311 308 305 303 301 296 291 284 280 268 249 225 209 202 201 203 195 183 179 170 166 160 157 156 157 153 144 138 129 125 122 117 111 124 124 120 121 118 107 102 108 105 101 104 106 102 99 104 107 108 89 70 59 82 137 145 146 145 138 146 133 128 126 133 133 85
322 320 320 322 322 321 319 317 317 314 311 311 309 309 303 296 287 284 261 234 215 205 197 196 192 185 166 159 154 151 155 157 151 143 140 129 125 126 134 134 137 139 133 134 130 113 117 118 111 108 114 117 121 120 121 123 122 111 107 87 62 68 79 82 78 94 129 146 138 124 103 79 75 82
325 323 324 325 325 322 322 322 320 320 317 315 316 316 315 314 315 321 328 294 200 194 191 178 160 153 150 153 157 156 150 146 145 143 135 135 135 136 134 131 127 122 115 111 114 121 123 121 118 117 117 113 115 117 119 121 115 116 111 103 99 92 77 77 84 80 71 62 70 105 151 146 133 152
329 327 327 327 328 326 326 327 325 325 324 323 321 325 330 329 327 331 337 3 52 101 119 130 136 138 138 135 133 130 132 134 135 132 132 134 132 128 123 118 116 118 121 121 121 120 122 118 119 119 115 117 123 118 120 120 119 118 116 116 114 105 103 101 86 72 61 46 52 78 82 94 107 132
331 331 329 331 330 329 330 330 331 329 330 332 333 336 337 340 340 342 359 21 63 80 97 109 112 116 123 127 126 122 118 118 119 117 115 113 115 117 121 125 124 124 124 128 123 121 119 115 110 107 107 111 117 119 120 121 121 121 118 115 111 109 109 108 99 89 76 67 25 57 76 75 78 79